TimeHST,TemperatureF,Dew PointF,Humidity,Sea Level PressureIn,VisibilityMPH,Wind Direction,Wind SpeedMPH,Gust SpeedMPH,PrecipitationIn,Events,Conditions,WindDirDegrees,DateUTC
12:53 AM,73.0,66.9,81,30.06,10.0,Calm,Calm,-,N/A,,Clear,0,2013-09-08 10:53:00
1:37 AM,71.6,66.2,83,30.04,10.0,ENE,3.5,-,N/A,,Partly Cloudy,60,2013-09-08 11:37:00
1:53 AM,72.0,66.9,84,30.05,10.0,Calm,Calm,-,N/A,,Partly Cloudy,0,2013-09-08 11:53:00
2:53 AM,72.0,66.9,84,30.04,10.0,Calm,Calm,-,N/A,,Clear,0,2013-09-08 12:53:00
3:53 AM,72.0,66.9,84,30.03,10.0,Calm,Calm,-,N/A,,Clear,0,2013-09-08 13:53:00
4:53 AM,72.0,66.0,81,30.04,10.0,Calm,Calm,-,N/A,,Clear,0,2013-09-08 14:53:00
5:53 AM,71.1,66.0,84,30.04,10.0,Calm,Calm,-,N/A,,Clear,0,2013-09-08 15:53:00
6:53 AM,73.0,66.0,79,30.06,10.0,East,3.5,-,N/A,,Clear,80,2013-09-08 16:53:00
7:53 AM,79.0,68.0,69,30.06,10.0,Variable,4.6,-,N/A,,Clear,0,2013-09-08 17:53:00
8:53 AM,82.9,66.9,58,30.08,10.0,East,6.9,16.1,N/A,,Clear,80,2013-09-08 18:53:00
9:53 AM,84.9,68.0,57,30.08,10.0,Variable,5.8,18.4,N/A,,Partly Cloudy,0,2013-09-08 19:53:00
10:53 AM,86.0,66.9,53,30.08,10.0,ESE,10.4,16.1,N/A,,Scattered Clouds,110,2013-09-08 20:53:00
11:53 AM,86.0,70.0,59,30.07,10.0,SE,11.5,18.4,N/A,,Partly Cloudy,130,2013-09-08 21:53:00
12:53 PM,86.0,66.0,51,30.06,10.0,ESE,12.7,19.6,N/A,,Scattered Clouds,110,2013-09-08 22:53:00
1:53 PM,82.9,71.1,67,30.04,10.0,ESE,9.2,19.6,N/A,,Mostly Cloudy,120,2013-09-08 23:53:00
2:53 PM,82.9,71.1,67,30.03,10.0,ESE,9.2,20.7,N/A,,Mostly Cloudy,120,2013-09-09 00:53:00
3:53 PM,82.9,71.1,67,30.02,10.0,ESE,11.5,18.4,N/A,,Mostly Cloudy,120,2013-09-09 01:53:00
4:53 PM,82.9,66.0,56,30.03,10.0,ESE,8.1,-,N/A,,Mostly Cloudy,110,2013-09-09 02:53:00
5:53 PM,82.9,66.0,56,30.04,10.0,East,8.1,-,N/A,,Clear,80,2013-09-09 03:53:00
6:53 PM,79.0,64.9,62,30.06,10.0,Variable,5.8,-,N/A,,Clear,0,2013-09-09 04:53:00
7:53 PM,78.1,66.0,66,30.08,10.0,ENE,3.5,-,N/A,,Clear,70,2013-09-09 05:53:00
8:53 PM,77.0,66.9,71,30.09,10.0,ENE,3.5,-,N/A,,Clear,70,2013-09-09 06:53:00
9:53 PM,75.9,66.9,74,30.11,10.0,ENE,3.5,-,N/A,,Clear,60,2013-09-09 07:53:00
10:50 PM,73.4,66.2,78,30.08,10.0,Variable,3.5,-,N/A,,Partly Cloudy,0,2013-09-09 08:50:00
10:53 PM,73.9,66.9,79,30.10,10.0,Variable,3.5,-,N/A,,Partly Cloudy,0,2013-09-09 08:53:00
11:53 PM,75.0,66.9,76,30.09,10.0,Variable,3.5,-,N/A,,Partly Cloudy,0,2013-09-09 09:53:00